Tracking 30995 objects as of 5-Jul-2025
HD Live streaming from Space Station
objects crossing your sky now

METEOR 1-13

Track METEOR 1-13 now!
10-day predictions
METEOR 1-13 is classified as:


NORAD ID: 6256
Int'l Code: 1972-085A
Perigee: 849.5 km
Apogee: 887.7 km
Inclination: 81.3 °
Period: 102.2 minutes
Semi major axis: 7239 km
RCS: 4.603 m2 (large)
Launch date: October 26, 1972
Source: Commonwealth of Independent States (former USSR) (CIS)
Launch site: PLESETSK MISSILE AND SPACE COMPLEX (PKMTR)
Your satellite tracking list
STARLINK-1592
Track 1 satellite(s)




NASA's NSSDC Master Catalog

Two Line Element Set (TLE):
1  6256U 72085A   25186.90031324 -.00000077  00000-0 -51070-4 0  9998
2  6256  81.2715 128.5364 0026437  33.6851 326.5993 14.09388990706733
Source of the keplerian elements: AFSPC